Location: Gebenbach
(49.5378°N, 11.8735°E)
Time: 14:50:07
(UTC+00:00)

Cosmos 1076 Rocket - Pass Details

Date: 29 October 2020
Orbit: 589 x 613 km, 82.5° (Epoch: 28 November)

Event Time Altitude Azimuth Distance (km) Brightness Sun altitude
Rises 16:49:07 0° 359° (N) 2,836 6.9 -9.3°
Reaches altitude 10° 16:51:39 10° 13° (NNE) 1,930 5.9 -9.7°
Maximum altitude 16:55:11 25° 69° (ENE) 1,216 4.5 -10.3°
Drops below altitude 10° 16:58:43 10° 126° (SE) 1,923 5.7 -10.8°
Sets 17:01:14 0° 139° (SE) 2,822 6.6 -11.2°
